Location: Macksville High School
(37.9611°N, 99.9654°W)
Time: 08:01:56
(UTC+00:00)

Cosmos 1340 - Pass Details

Date: 27 February 2020
Orbit: 502 x 505 km, 81.2° (Epoch: 06 April)

Event Time Altitude Azimuth Distance (km) Brightness Sun altitude
Rises 12:08:02 0° 347° (NNW) 2,604 6.1 -14.0°
Reaches altitude 10° 12:10:10 10° 344° (NNW) 1,716 5.2 -13.5°
Maximum altitude 12:13:53 61° 264° (W) 572 2.6 -12.8°
Drops below altitude 10° 12:17:34 10° 183° (S) 1,703 5.3 -12.1°
Sets 12:19:41 0° 180° (S) 2,582 6.3 -11.7°
